User: anonymous   Login
Location: Round Knob
(37.2473°N, 88.7376°W)
Time: 11:49:56
(UTC+00:00)
Language:

Hubble Space Telescope - Orbit

View from above orbital plane
View from above orbital plane
View from above satellite
View from above satellite

Ground track
Ground track

The orbit data is extracted from the following two-line orbital elements,

1 20580U 90037B   21299.07374097  .00000962  00000-0  47068-4 0  9990
2 20580  28.4702 280.7191 0002744  35.0446  40.1751 15.09797036531012
Epoch (UTC): 26 October 2021 01:46:11
Eccentricity: 0.0002744
inclination: 28.4702°
perigee height: 535 km
apogee height: 539 km
right ascension of ascending node: 280.7191°
argument of perigee: 35.0446°
revolutions per day: 15.09797036
mean anomaly at epoch: 40.1751°
orbit number at epoch: 53101

The dashed part of the orbit path shows where the satellite is in the earth's shadow,  

DLR